Time,TemperatureF,DewpointF,PressureIn,WindDirection,WindDirectionDegrees,WindSpeedMPH,WindSpeedGustMPH,Humidity,HourlyPrecipIn,Conditions,Clouds,dailyrainin,SoftwareType,DateUTC
2013-01-16 00:08:00,31.3,24.0,30.17,ENE,60,2.0,3.0,73,0.00,,,0.00,weatherlink.com 1.10,2013-01-16 09:08:00,
2013-01-16 00:23:00,31.7,26.0,30.16,SSW,203,1.0,5.0,78,0.00,,,0.00,weatherlink.com 1.10,2013-01-16 09:23:00,
2013-01-16 00:39:00,31.9,26.0,30.16,SSW,203,0.0,2.0,78,0.00,,,0.00,weatherlink.com 1.10,2013-01-16 09:39:00,
2013-01-16 00:54:00,32.0,26.0,30.16,SSW,203,0.0,2.0,77,0.00,,,0.00,weatherlink.com 1.10,2013-01-16 09:54:00,
2013-01-16 01:09:00,32.0,25.0,30.15,SSW,203,0.0,2.0,75,0.00,,,0.00,weatherlink.com 1.10,2013-01-16 10:09:00,
2013-01-16 01:24:00,32.1,25.0,30.14,SSW,203,1.0,3.0,75,0.00,,,0.00,weatherlink.com 1.10,2013-01-16 10:24:00,
2013-01-16 01:39:00,32.1,25.0,30.14,SSW,203,1.0,3.0,76,0.00,,,0.00,weatherlink.com 1.10,2013-01-16 10:39:00,
2013-01-16 01:54:00,31.9,25.0,30.14,North,355,1.0,3.0,77,0.00,,,0.00,weatherlink.com 1.10,2013-01-16 10:54:00,
2013-01-16 02:13:00,31.7,26.0,30.13,North,355,1.0,2.0,78,0.00,,,0.00,weatherlink.com 1.10,2013-01-16 11:13:00,
2013-01-16 02:24:00,31.3,26.0,30.12,North,355,2.0,3.0,79,0.00,,,0.00,weatherlink.com 1.10,2013-01-16 11:24:00,
2013-01-16 02:39:00,31.0,26.0,30.12,North,355,1.0,1.0,80,0.00,,,0.00,weatherlink.com 1.10,2013-01-16 11:39:00,
2013-01-16 02:54:00,31.4,26.0,30.10,North,355,0.0,1.0,80,0.00,,,0.00,weatherlink.com 1.10,2013-01-16 11:54:00,
2013-01-16 03:09:00,32.1,26.0,30.09,North,355,0.0,1.0,78,0.00,,,0.00,weatherlink.com 1.10,2013-01-16 12:09:00,
2013-01-16 03:24:00,32.3,26.0,30.09,North,355,0.0,0.0,78,0.00,,,0.00,weatherlink.com 1.10,2013-01-16 12:24:00,
2013-01-16 03:39:00,32.0,26.0,30.09,North,355,0.0,2.0,78,0.00,,,0.00,weatherlink.com 1.10,2013-01-16 12:39:00,
2013-01-16 03:54:00,31.9,26.0,30.08,ESE,121,2.0,3.0,78,0.00,,,0.00,weatherlink.com 1.10,2013-01-16 12:54:00,
2013-01-16 04:13:00,32.5,27.0,30.07,ESE,121,0.0,2.0,80,0.00,,,0.00,weatherlink.com 1.10,2013-01-16 13:13:00,
2013-01-16 04:24:00,32.6,28.0,30.05,ESE,121,0.0,3.0,82,0.00,,,0.00,weatherlink.com 1.10,2013-01-16 13:24:00,
2013-01-16 04:39:00,31.9,27.0,30.04,ESE,121,0.0,2.0,83,0.00,,,0.00,weatherlink.com 1.10,2013-01-16 13:39:00,
2013-01-16 04:54:00,32.4,27.0,30.04,ESE,121,0.0,1.0,81,0.00,,,0.00,weatherlink.com 1.10,2013-01-16 13:54:00,
2013-01-16 05:09:00,32.6,27.0,30.03,ESE,121,0.0,3.0,81,0.00,,,0.00,weatherlink.com 1.10,2013-01-16 14:09:00,
2013-01-16 05:24:00,33.1,27.0,30.02,ESE,121,1.0,2.0,79,0.00,,,0.00,weatherlink.com 1.10,2013-01-16 14:24:00,
2013-01-16 05:39:00,33.1,27.0,30.01,West,263,1.0,7.0,79,0.00,,,0.00,weatherlink.com 1.10,2013-01-16 14:39:00,
2013-01-16 05:54:00,32.6,30.0,30.00,SW,227,1.0,11.0,88,0.00,,,0.00,weatherlink.com 1.10,2013-01-16 14:54:00,
2013-01-16 06:09:00,32.1,30.0,30.00,WSW,242,7.0,8.0,90,0.00,,,0.00,weatherlink.com 1.10,2013-01-16 15:09:00,
2013-01-16 06:24:00,32.0,30.0,29.99,WSW,243,5.0,7.0,92,0.00,,,0.00,weatherlink.com 1.10,2013-01-16 15:24:00,
2013-01-16 06:39:00,32.6,30.0,29.98,West,269,6.0,7.0,91,0.00,,,0.00,weatherlink.com 1.10,2013-01-16 15:39:00,
2013-01-16 06:58:00,32.3,30.0,29.98,WNW,300,5.0,7.0,90,0.00,,,0.00,weatherlink.com 1.10,2013-01-16 15:58:00,
2013-01-16 07:10:00,32.0,31.0,29.97,WSW,248,2.0,10.0,94,0.01,,,0.01,weatherlink.com 1.10,2013-01-16 16:10:00,
2013-01-16 07:25:00,32.0,31.0,29.97,West,263,5.0,8.0,95,0.01,,,0.01,weatherlink.com 1.10,2013-01-16 16:25:00,
2013-01-16 07:40:00,32.0,31.0,29.96,West,261,5.0,7.0,95,0.01,,,0.01,weatherlink.com 1.10,2013-01-16 16:40:00,
2013-01-16 07:55:00,31.8,31.0,29.96,SW,236,2.0,6.0,95,0.01,,,0.01,weatherlink.com 1.10,2013-01-16 16:55:00,
2013-01-16 08:10:00,31.2,30.0,29.96,WNW,284,1.0,4.0,95,0.00,,,0.01,weatherlink.com 1.10,2013-01-16 17:10:00,
2013-01-16 08:25:00,31.1,30.0,29.95,West,275,1.0,6.0,95,0.01,,,0.02,weatherlink.com 1.10,2013-01-16 17:25:00,
2013-01-16 08:40:00,30.8,30.0,29.95,WSW,246,2.0,5.0,95,0.01,,,0.02,weatherlink.com 1.10,2013-01-16 17:40:00,
2013-01-16 08:55:00,30.9,30.0,29.94,West,281,2.0,4.0,96,0.01,,,0.02,weatherlink.com 1.10,2013-01-16 17:55:00,
2013-01-16 09:10:00,31.0,30.0,29.94,WSW,251,2.0,4.0,96,0.03,,,0.04,weatherlink.com 1.10,2013-01-16 18:10:00,
2013-01-16 09:25:00,30.8,30.0,29.94,NW,317,1.0,7.0,95,0.03,,,0.05,weatherlink.com 1.10,2013-01-16 18:25:00,
2013-01-16 09:40:00,30.3,29.0,29.94,WNW,287,1.0,7.0,95,0.04,,,0.06,weatherlink.com 1.10,2013-01-16 18:40:00,
2013-01-16 09:55:00,29.9,29.0,29.94,WNW,301,4.0,8.0,95,0.06,,,0.08,weatherlink.com 1.10,2013-01-16 18:55:00,
2013-01-16 10:10:00,29.9,29.0,29.93,NW,326,3.0,5.0,96,0.06,,,0.10,weatherlink.com 1.10,2013-01-16 19:10:00,
2013-01-16 10:25:00,30.2,29.0,29.93,West,265,1.0,4.0,96,0.08,,,0.13,weatherlink.com 1.10,2013-01-16 19:25:00,
2013-01-16 10:40:00,30.1,29.0,29.92,WSW,242,0.0,3.0,95,0.08,,,0.14,weatherlink.com 1.10,2013-01-16 19:40:00,
2013-01-16 10:55:00,29.9,29.0,29.92,SW,235,0.0,1.0,96,0.08,,,0.16,weatherlink.com 1.10,2013-01-16 19:55:00,
2013-01-16 11:10:00,29.8,29.0,29.92,SSW,209,1.0,2.0,96,0.07,,,0.17,weatherlink.com 1.10,2013-01-16 20:10:00,
2013-01-16 11:25:00,29.6,29.0,29.91,SSE,147,0.0,3.0,96,0.04,,,0.17,weatherlink.com 1.10,2013-01-16 20:25:00,
2013-01-16 11:40:00,29.4,28.0,29.90,South,182,0.0,3.0,96,0.04,,,0.18,weatherlink.com 1.10,2013-01-16 20:40:00,
2013-01-16 11:55:00,29.4,28.0,29.90,South,190,0.0,3.0,96,0.02,,,0.18,weatherlink.com 1.10,2013-01-16 20:55:00,
2013-01-16 12:10:00,29.2,28.0,29.89,South,190,0.0,3.0,96,0.02,,,0.19,weatherlink.com 1.10,2013-01-16 21:10:00,
2013-01-16 12:25:00,28.8,28.0,29.89,South,190,0.0,3.0,96,0.01,,,0.19,weatherlink.com 1.10,2013-01-16 21:25:00,
2013-01-16 12:40:00,28.9,28.0,29.89,South,190,0.0,1.0,96,0.02,,,0.20,weatherlink.com 1.10,2013-01-16 21:40:00,
2013-01-16 12:55:00,29.0,28.0,29.88,South,190,0.0,2.0,96,0.03,,,0.21,weatherlink.com 1.10,2013-01-16 21:55:00,
2013-01-16 13:10:00,28.8,28.0,29.87,South,190,0.0,0.0,96,0.03,,,0.22,weatherlink.com 1.10,2013-01-16 22:10:00,
2013-01-16 13:25:00,29.2,28.0,29.86,South,190,0.0,0.0,96,0.04,,,0.23,weatherlink.com 1.10,2013-01-16 22:25:00,
2013-01-16 13:40:00,29.5,28.0,29.86,South,190,0.0,0.0,95,0.04,,,0.24,weatherlink.com 1.10,2013-01-16 22:40:00,
2013-01-16 13:55:00,29.1,28.0,29.85,South,190,0.0,0.0,95,0.03,,,0.24,weatherlink.com 1.10,2013-01-16 22:55:00,
2013-01-16 14:10:00,28.6,27.0,29.84,South,190,0.0,0.0,95,0.02,,,0.24,weatherlink.com 1.10,2013-01-16 23:10:00,
2013-01-16 14:25:00,28.2,27.0,29.83,South,190,0.0,0.0,95,0.01,,,0.24,weatherlink.com 1.10,2013-01-16 23:25:00,
2013-01-16 14:40:00,27.7,27.0,29.83,South,190,0.0,2.0,95,0.00,,,0.24,weatherlink.com 1.10,2013-01-16 23:40:00,
2013-01-16 14:56:00,27.3,26.0,29.82,South,190,0.0,2.0,95,0.00,,,0.24,weatherlink.com 1.10,2013-01-16 23:56:00,
2013-01-16 15:11:00,27.1,26.0,29.81,South,190,0.0,1.0,95,0.00,,,0.24,weatherlink.com 1.10,2013-01-17 00:11:00,
2013-01-16 15:26:00,26.8,25.0,29.80,South,190,0.0,1.0,94,0.00,,,0.24,weatherlink.com 1.10,2013-01-17 00:26:00,
2013-01-16 15:41:00,26.6,25.0,29.80,South,190,0.0,1.0,94,0.00,,,0.24,weatherlink.com 1.10,2013-01-17 00:41:00,
2013-01-16 15:56:00,26.5,25.0,29.79,South,190,0.0,0.0,94,0.00,,,0.24,weatherlink.com 1.10,2013-01-17 00:56:00,
2013-01-16 16:11:00,26.5,25.0,29.79,South,190,0.0,0.0,94,0.00,,,0.24,weatherlink.com 1.10,2013-01-17 01:11:00,
2013-01-16 16:26:00,26.5,25.0,29.78,South,190,0.0,0.0,95,0.00,,,0.24,weatherlink.com 1.10,2013-01-17 01:26:00,
2013-01-16 16:41:00,26.3,25.0,29.77,South,190,0.0,0.0,95,0.00,,,0.24,weatherlink.com 1.10,2013-01-17 01:41:00,
2013-01-16 16:56:00,25.9,24.0,29.77,South,190,0.0,0.0,94,0.00,,,0.24,weatherlink.com 1.10,2013-01-17 01:56:00,
2013-01-16 17:11:00,26.1,25.0,29.76,South,190,0.0,0.0,95,0.00,,,0.24,weatherlink.com 1.10,2013-01-17 02:11:00,
2013-01-16 17:26:00,26.1,25.0,29.76,South,190,0.0,0.0,95,0.00,,,0.24,weatherlink.com 1.10,2013-01-17 02:26:00,
2013-01-16 17:41:00,25.8,24.0,29.76,South,190,0.0,0.0,94,0.00,,,0.24,weatherlink.com 1.10,2013-01-17 02:41:00,
2013-01-16 17:56:00,25.4,24.0,29.75,South,190,0.0,0.0,94,0.00,,,0.24,weatherlink.com 1.10,2013-01-17 02:56:00,
2013-01-16 18:11:00,24.8,23.0,29.74,South,190,0.0,0.0,93,0.00,,,0.24,weatherlink.com 1.10,2013-01-17 03:11:00,
2013-01-16 18:26:00,24.6,23.0,29.74,South,190,0.0,0.0,94,0.00,,,0.24,weatherlink.com 1.10,2013-01-17 03:26:00,
2013-01-16 18:41:00,24.3,23.0,29.74,South,190,0.0,2.0,94,0.00,,,0.24,weatherlink.com 1.10,2013-01-17 03:41:00,
2013-01-16 18:56:00,24.3,23.0,29.73,South,190,0.0,1.0,94,0.00,,,0.24,weatherlink.com 1.10,2013-01-17 03:56:00,
2013-01-16 19:11:00,23.8,22.0,29.73,North,355,1.0,4.0,94,0.00,,,0.24,weatherlink.com 1.10,2013-01-17 04:11:00,
2013-01-16 19:26:00,23.2,22.0,29.73,North,355,1.0,2.0,94,0.00,,,0.24,weatherlink.com 1.10,2013-01-17 04:26:00,
2013-01-16 19:41:00,22.8,21.0,29.72,NW,321,0.0,3.0,94,0.00,,,0.24,weatherlink.com 1.10,2013-01-17 04:41:00,
2013-01-16 19:56:00,22.5,21.0,29.71,NNE,15,1.0,3.0,94,0.00,,,0.24,weatherlink.com 1.10,2013-01-17 04:56:00,
2013-01-16 20:11:00,22.4,21.0,29.71,NNW,336,0.0,1.0,94,0.00,,,0.24,weatherlink.com 1.10,2013-01-17 05:11:00,
2013-01-16 20:26:00,22.4,21.0,29.70,North,360,0.0,4.0,94,0.00,,,0.24,weatherlink.com 1.10,2013-01-17 05:26:00,
2013-01-16 20:41:00,22.5,21.0,29.70,North,360,1.0,2.0,94,0.00,,,0.24,weatherlink.com 1.10,2013-01-17 05:41:00,
2013-01-16 20:56:00,22.2,21.0,29.70,North,10,1.0,4.0,94,0.00,,,0.24,weatherlink.com 1.10,2013-01-17 05:56:00,
2013-01-16 21:11:00,22.2,21.0,29.70,North,355,0.0,4.0,94,0.00,,,0.24,weatherlink.com 1.10,2013-01-17 06:11:00,
2013-01-16 21:26:00,22.1,21.0,29.69,NW,311,1.0,4.0,94,0.00,,,0.24,weatherlink.com 1.10,2013-01-17 06:26:00,
2013-01-16 21:41:00,21.9,21.0,29.68,NW,315,2.0,3.0,94,0.00,,,0.24,weatherlink.com 1.10,2013-01-17 06:41:00,
2013-01-16 21:56:00,21.8,20.0,29.68,NW,325,2.0,4.0,94,0.00,,,0.24,weatherlink.com 1.10,2013-01-17 06:56:00,
2013-01-16 22:12:00,21.7,20.0,29.68,NNW,327,1.0,3.0,94,0.00,,,0.24,weatherlink.com 1.10,2013-01-17 07:12:00,
2013-01-16 22:27:00,21.7,20.0,29.68,NW,325,0.0,2.0,94,0.00,,,0.24,weatherlink.com 1.10,2013-01-17 07:27:00,
2013-01-16 22:57:00,21.5,20.0,29.67,NNW,328,1.0,3.0,93,0.00,,,0.24,weatherlink.com 1.10,2013-01-17 07:57:00,
2013-01-16 23:12:00,21.4,20.0,29.66,NNW,328,0.0,3.0,93,0.00,,,0.24,weatherlink.com 1.10,2013-01-17 08:12:00,
2013-01-16 23:27:00,21.4,20.0,29.66,NNW,328,1.0,2.0,93,0.00,,,0.24,weatherlink.com 1.10,2013-01-17 08:27:00,
2013-01-16 23:42:00,21.3,20.0,29.66,NNW,328,0.0,3.0,93,0.00,,,0.24,weatherlink.com 1.10,2013-01-17 08:42:00,
2013-01-16 23:57:00,21.3,20.0,29.65,NNW,328,0.0,3.0,93,0.00,,,0.24,weatherlink.com 1.10,2013-01-17 08:57:00,